Аэропорт
Кутаиси (UGKO)

 UGKO / KUT
ЗЦ Ростов-на-Дону
Тбилиси* (UGGG)
Тбилиси (UGGG)
 42.17670, 42.48260  / 223 ft

 UGKO 202230Z 07005KT 9999 BKN046 06/06 Q1016 NOSIG

UGKO_AIP
Название сценария Тип сценария Flight Simulator 9 Flight Simulator X Prepar3D v2 Prepar3D v3 Prepar3D v4 xPlane
UGKO Kutaisi AFCAD freeware бесплатный

Международный аэропорт Кутаиси имени Давида Строителя расположен в регионе Имеретия в центральной части страны, является третьим по величине аэропортом страны. Используется как аэропорт совместного базирования. Диспетчерская вышка является 5ой по высоте в мире, ее высоты - 58 метров. Аэропорт является хабом для лоукостера WizzAir.

Взлетно-посадочные полосы (ВПП)
Номер Длина Поверхность ILS
07 2500 м Асфальто-
бетон
CATI 110.1
25 CATI 108.7


2019 © VATRUS division (Privacy Policy)